Location: Malcolm X Square
(37.7810°N, 122.4297°W)
Time: 22:42:34
(UTC+00:00)

Cosmos 921 Rocket - Pass Details

Date: 13 April 2024
Orbit: 567 x 626 km, 75.8° (Epoch: 20 May)

Event Time Altitude Azimuth Distance (km) Brightness Sun altitude
Exits shadow 12:19:21 22° 213° (SSW) 1,272 4.2 -15.3°
Maximum altitude 12:21:53 60° 287° (WNW) 669 3.0 -14.8°
Drops below altitude 10° 12:26:08 10° 8° (N) 1,928 6.0 -14.0°
Sets 12:28:24 0° 12° (NNE) 2,844 7.0 -13.6°
